When you browse on this site, cookies collect data to enhance your experience and personalize the content and advertising you see.
Visit our Privacy Policy to learn more. By continuing to use the site, you agree to this use of cookies and data.

Hourly Weather Kupovcy

Today, 8 August, Saturday

Time Temperature Precipitation Wind Pressure Humidity
00:00 +19°C° 0 mm 2 mps 755 mmHg 91%
01:00 +19°C° 0 mm 2 mps 756 mmHg 93%
02:00 +18°C° 0 mm 2 mps 756 mmHg 94%
03:00 +18°C° 0 mm 2 mps 756 mmHg 95%
04:00 +18°C° 0 mm 2 mps 756 mmHg 95%
05:00 +18°C° 0 mm 2 mps 756 mmHg 96%
06:00 +19°C° 0 mm 2 mps 756 mmHg 90%
07:00 +21°C° 0 mm 2 mps 756 mmHg 85%
08:00 +24°C° 0 mm 1 mps 756 mmHg 79%
09:00 +25°C° 0 mm 2 mps 756 mmHg 74%
10:00 +26°C° 0 mm 2 mps 756 mmHg 68%
11:00 +27°C° 0 mm 2 mps 755 mmHg 63%
12:00 +27°C° 0 mm 2 mps 755 mmHg 62%
13:00 +28°C° 0 mm 2 mps 755 mmHg 61%
14:00 +28°C° 0 mm 2 mps 754 mmHg 60%
15:00 +28°C° 0.1 mm 2 mps 754 mmHg 61%
16:00 +28°C° 0.1 mm 2 mps 754 mmHg 62%
17:00 +28°C° 0.1 mm 2 mps 753 mmHg 62%
18:00 +26°C° 0.1 mm 2 mps 753 mmHg 70%
19:00 +24°C° 0.1 mm 2 mps 753 mmHg 77%
20:00 +21°C° 0.1 mm 2 mps 753 mmHg 84%
21:00 +21°C° 0 mm 2 mps 753 mmHg 86%
22:00 +20°C° 0 mm 2 mps 753 mmHg 88%
23:00 +20°C° 0 mm 1 mps 753 mmHg 90%

Tomorrow, 9 August, Sunday

Time Temperature Precipitation Wind Pressure Humidity
00:00 +20°C° 0 mm 1 mps 753 mmHg 91%
01:00 +19°C° 0 mm 1 mps 753 mmHg 91%
02:00 +19°C° 0 mm 1 mps 753 mmHg 92%
03:00 +19°C° 0 mm 1 mps 753 mmHg 93%
04:00 +18°C° 0 mm 1 mps 752 mmHg 93%
05:00 +18°C° 0 mm 1 mps 752 mmHg 94%
06:00 +20°C° 0 mm 1 mps 752 mmHg 89%
07:00 +21°C° 0 mm 1 mps 752 mmHg 85%
08:00 +22°C° 0 mm 1 mps 753 mmHg 81%
09:00 +24°C° 0 mm 1 mps 752 mmHg 75%
10:00 +25°C° 0 mm 2 mps 752 mmHg 69%
11:00 +26°C° 0 mm 2 mps 752 mmHg 63%
12:00 +27°C° 0 mm 2 mps 752 mmHg 60%
13:00 +27°C° 0 mm 2 mps 752 mmHg 58%
14:00 +28°C° 0 mm 1 mps 751 mmHg 55%
15:00 +28°C° 0 mm 1 mps 751 mmHg 56%
16:00 +28°C° 0 mm 1 mps 751 mmHg 58%
17:00 +27°C° 0 mm 2 mps 751 mmHg 59%
18:00 +26°C° 0 mm 1 mps 751 mmHg 65%
19:00 +24°C° 0 mm 1 mps 751 mmHg 70%
20:00 +22°C° 0 mm 1 mps 751 mmHg 76%
21:00 +21°C° 0.1 mm 1 mps 751 mmHg 79%
22:00 +21°C° 0.1 mm 1 mps 751 mmHg 83%
23:00 +20°C° 0.1 mm 1 mps 751 mmHg 86%

Day after tomorrow, 10 August, Monday

Time Temperature Precipitation Wind Pressure Humidity
00:00 +19°C° 0.1 mm 1 mps 751 mmHg 87%
01:00 +17°C° 0.1 mm 0 mps 750 mmHg 89%
02:00 +17°C° 0.1 mm 0 mps 750 mmHg 90%
03:00 +18°C° 0.4 mm 1 mps 750 mmHg 91%
04:00 +18°C° 0.4 mm 1 mps 750 mmHg 92%
05:00 +18°C° 0.4 mm 1 mps 750 mmHg 93%
06:00 +19°C° 0.2 mm 1 mps 750 mmHg 89%
07:00 +21°C° 0.2 mm 1 mps 750 mmHg 86%
08:00 +22°C° 0.2 mm 1 mps 750 mmHg 82%
09:00 +24°C° 0.1 mm 1 mps 750 mmHg 76%
10:00 +25°C° 0.1 mm 1 mps 750 mmHg 70%
11:00 +27°C° 0.1 mm 1 mps 750 mmHg 64%
12:00 +27°C° 0.1 mm 2 mps 750 mmHg 60%
13:00 +28°C° 0.1 mm 2 mps 750 mmHg 57%
14:00 +28°C° 0.1 mm 2 mps 750 mmHg 54%
15:00 +28°C° 0.1 mm 2 mps 749 mmHg 56%
16:00 +28°C° 0.1 mm 2 mps 749 mmHg 57%
17:00 +28°C° 0.1 mm 2 mps 749 mmHg 59%
18:00 +26°C° 0 mm 2 mps 749 mmHg 65%
19:00 +24°C° 0 mm 1 mps 749 mmHg 71%
20:00 +22°C° 0 mm 1 mps 749 mmHg 78%
21:00 +21°C° 0 mm 1 mps 749 mmHg 80%
22:00 +21°C° 0 mm 1 mps 749 mmHg 82%
23:00 +20°C° 0 mm 1 mps 750 mmHg 84%

11 August, Tuesday

Time Temperature Precipitation Wind Pressure Humidity
00:00 +20°C° 0 mm 1 mps 750 mmHg 85%
01:00 +19°C° 0 mm 1 mps 749 mmHg 87%
02:00 +19°C° 0 mm 1 mps 749 mmHg 89%
03:00 +18°C° 0 mm 1 mps 749 mmHg 90%
04:00 +18°C° 0 mm 1 mps 749 mmHg 91%
05:00 +18°C° 0 mm 1 mps 749 mmHg 92%
06:00 +18°C° 0.4 mm 2 mps 749 mmHg 90%
07:00 +19°C° 0.4 mm 2 mps 749 mmHg 88%
08:00 +20°C° 0.4 mm 2 mps 750 mmHg 87%
09:00 +23°C° 0.6 mm 2 mps 750 mmHg 81%
10:00 +24°C° 0.6 mm 3 mps 750 mmHg 76%
11:00 +25°C° 0.6 mm 3 mps 750 mmHg 70%
12:00 +25°C° 0.5 mm 3 mps 750 mmHg 69%
13:00 +26°C° 0.5 mm 3 mps 749 mmHg 68%
14:00 +26°C° 0.5 mm 3 mps 749 mmHg 67%
15:00 +25°C° 0.4 mm 4 mps 749 mmHg 70%
16:00 +25°C° 0.4 mm 4 mps 750 mmHg 72%
17:00 +23°C° 0.4 mm 4 mps 750 mmHg 75%
18:00 +21°C° 0 mm 4 mps 750 mmHg 76%
19:00 +20°C° 0 mm 4 mps 750 mmHg 78%
20:00 +18°C° 0 mm 4 mps 750 mmHg 79%
21:00 +17°C° 0 mm 3 mps 750 mmHg 81%
22:00 +16°C° 0 mm 3 mps 751 mmHg 82%
23:00 +14°C° 0 mm 3 mps 751 mmHg 84%

12 August, Wednesday

Time Temperature Precipitation Wind Pressure Humidity
00:00 +13°C° 0 mm 3 mps 751 mmHg 86%
01:00 +12°C° 0 mm 3 mps 751 mmHg 89%
02:00 +12°C° 0 mm 3 mps 751 mmHg 91%
03:00 +11°C° 0 mm 3 mps 751 mmHg 92%
04:00 +11°C° 0 mm 3 mps 752 mmHg 93%
05:00 +10°C° 0 mm 3 mps 752 mmHg 94%
06:00 +12°C° 0 mm 3 mps 752 mmHg 88%
07:00 +13°C° 0 mm 3 mps 752 mmHg 81%
08:00 +16°C° 0 mm 3 mps 752 mmHg 75%
09:00 +17°C° 0 mm 3 mps 752 mmHg 69%
10:00 +18°C° 0 mm 3 mps 752 mmHg 64%
11:00 +20°C° 0 mm 4 mps 753 mmHg 59%
12:00 +20°C° 0 mm 4 mps 752 mmHg 59%
13:00 +20°C° 0 mm 3 mps 752 mmHg 60%
14:00 +20°C° 0 mm 3 mps 752 mmHg 60%
15:00 +20°C° 0 mm 3 mps 752 mmHg 60%
16:00 +20°C° 0 mm 4 mps 752 mmHg 61%
17:00 +19°C° 0 mm 4 mps 752 mmHg 61%
18:00 +18°C° 0 mm 3 mps 753 mmHg 67%
19:00 +16°C° 0 mm 3 mps 753 mmHg 72%
20:00 +15°C° 0 mm 2 mps 753 mmHg 78%
21:00 +14°C° 0 mm 2 mps 753 mmHg 80%
22:00 +14°C° 0 mm 2 mps 753 mmHg 83%
23:00 +13°C° 0 mm 2 mps 753 mmHg 86%

13 August, Thursday

Time Temperature Precipitation Wind Pressure Humidity
00:00 +12°C° 0 mm 2 mps 753 mmHg 88%
01:00 +12°C° 0 mm 2 mps 753 mmHg 90%
02:00 +10°C° 0 mm 2 mps 753 mmHg 92%
03:00 +10°C° 0 mm 2 mps 753 mmHg 92%
04:00 +10°C° 0 mm 2 mps 753 mmHg 92%
05:00 +9°C° 0 mm 2 mps 753 mmHg 92%
06:00 +12°C° 0 mm 2 mps 753 mmHg 85%
07:00 +14°C° 0 mm 1 mps 753 mmHg 78%
08:00 +16°C° 0 mm 1 mps 753 mmHg 72%
09:00 +18°C° 0 mm 1 mps 753 mmHg 66%
10:00 +20°C° 0 mm 1 mps 753 mmHg 61%
11:00 +21°C° 0 mm 1 mps 753 mmHg 56%
12:00 +21°C° 0 mm 1 mps 753 mmHg 56%
13:00 +21°C° 0 mm 1 mps 753 mmHg 55%
14:00 +20°C° 0 mm 0 mps 752 mmHg 54%
15:00 +19°C° 0 mm 0 mps 752 mmHg 56%
16:00 +21°C° 0 mm 1 mps 752 mmHg 58%
17:00 +21°C° 0 mm 1 mps 752 mmHg 60%
18:00 +20°C° 0 mm 1 mps 752 mmHg 64%
19:00 +18°C° 0 mm 1 mps 752 mmHg 69%
20:00 +16°C° 0 mm 1 mps 752 mmHg 73%
21:00 +15°C° 0 mm 1 mps 752 mmHg 75%
22:00 +15°C° 0 mm 1 mps 752 mmHg 76%
23:00 +14°C° 0 mm 1 mps 752 mmHg 77%
Show more